Terminal Aerodrome Forecast
Issued by NWS Denver/Boulder, CO

Home | Current Version | Previous Version | Text Only | Print | Product List | Glossary On
Versions: 1 2 3 4 5 6 7 8 9 10 11 12 13 14 15 16 17 18 19 20 21 22 23 24 25 26 27 28 29 30 31 32 33 34 35 36
000
FTUS45 KBOU 141340 AAB
TAFDEN
TAF AMD
KDEN 141340Z 1414/1518 25007KT P6SM FEW050 SCT180
     FM141500 33010KT P6SM FEW060 SCT140
     FM141700 01008KT P6SM FEW080
     FM142100 08008KT P6SM FEW200
     FM150000 11008KT P6SM FEW120 SCT200
     FM150300 21011KT P6SM FEW120 SCT200=

USA.gov is the U.S. government's official web portal to all federal, state and local government web resources and services.